K2BIG Weather Reports


time (UTC)temp
C
wind
direction
speed
KPH
gust
KPH
rain 1hr
cm
rain 24hr
cm
rain mn
cm
humidity
%
barometer
mb
20260506040516 21 180 4.8 17.7 0.00 0.00 0.00 55 1008.9
20260506040016 21 180 4.8 16.1 0.00 0.00 0.00 55 1008.8
20260506035516 21 180 1.6 8.0 0.00 0.00 0.00 54 1008.8
20260506035015 21 180 3.2 11.3 0.00 0.00 0.00 54 1008.8
20260506034515 22 180 1.6 8.0 0.00 0.00 0.00 54 1008.8
20260506034015 22 158 3.2 9.7 0.00 0.00 0.00 53 1008.8
20260506033515 22 203 4.8 11.3 0.00 0.00 0.00 53 1008.8
20260506033015 22 180 6.4 17.7 0.00 0.00 0.00 53 1008.7
20260506032515 22 180 3.2 12.9 0.00 0.00 0.00 53 1008.7
20260506032015 22 135 1.6 6.4 0.00 0.00 0.00 53 1008.7
20260506031515 22 158 3.2 8.0 0.00 0.00 0.00 52 1008.7
20260506031015 22 180 3.2 14.5 0.00 0.00 0.00 52 1008.8
20260506030515 22 203 3.2 9.7 0.00 0.00 0.00 52 1008.8
20260506030015 22 203 4.8 17.7 0.00 0.00 0.00 51 1008.8
20260506025515 22 203 4.8 16.1 0.00 0.00 0.00 51 1008.8
20260506025016 22 180 4.8 16.1 0.00 0.00 0.00 51 1008.7
20260506024515 22 180 6.4 14.5 0.00 0.00 0.00 51 1008.7
20260506024015 22 180 3.2 11.3 0.00 0.00 0.00 51 1008.7
20260506023515 22 203 6.4 17.7 0.00 0.00 0.00 50 1008.7
20260506023015 23 225 6.4 16.1 0.00 0.00 0.00 50 1008.7
20260506022515 23 203 8.0 20.9 0.00 0.00 0.00 49 1008.7
20260506022015 23 180 6.4 17.7 0.00 0.00 0.00 49 1008.5
20260506021515 23 203 8.0 19.3 0.00 0.00 0.00 48 1008.5
20260506021015 23 225 6.4 22.5 0.00 0.00 0.00 49 1008.5
20260506020515 23 180 4.8 11.3 0.00 0.00 0.00 48 1008.4
20260506020015 23 158 4.8 19.3 0.00 0.00 0.00 47 1008.5
20260506015515 23 203 6.4 19.3 0.00 0.00 0.00 46 1008.4
20260506015015 23 180 4.8 14.5 0.00 0.00 0.00 46 1008.4
20260506014515 23 180 4.8 16.1 0.00 0.00 0.00 46 1008.4
20260506014015 23 180 4.8 12.9 0.00 0.00 0.00 46 1008.4
20260506013515 23 203 3.2 9.7 0.00 0.00 0.00 46 1008.3
20260506013015 23 180 4.8 16.1 0.00 0.00 0.00 45 1008.2
20260506012515 23 180 6.4 22.5 0.00 0.00 0.00 44 1008.2
20260506012015 23 180 4.8 19.3 0.00 0.00 0.00 44 1008.2
20260506011515 23 203 8.0 20.9 0.00 0.00 0.00 44 1008.0
20260506011015 23 203 4.8 22.5 0.00 0.00 0.00 45 1008.0
20260506010515 23 203 6.4 12.9 0.00 0.00 0.00 44 1007.9
20260506010015 23 203 4.8 12.9 0.00 0.00 0.00 44 1007.7
20260506005515 23 180 6.4 20.9 0.00 0.00 0.00 44 1007.7
20260506005015 23 180 3.2 12.9 0.00 0.00 0.00 45 1007.7
20260506004515 23 180 3.2 9.7 0.00 0.00 0.00 45 1007.7
20260506004015 23 180 4.8 9.7 0.00 0.00 0.00 44 1007.6
20260506003515 23 180 1.6 8.0 0.00 0.00 0.00 45 1007.6
20260506003015 23 180 4.8 17.7 0.00 0.00 0.00 45 1007.6
20260506002515 23 180 3.2 12.9 0.00 0.00 0.00 46 1007.7
20260506002015 23 158 3.2 9.7 0.00 0.00 0.00 44 1007.4
20260506001515 23 180 3.2 12.9 0.00 0.00 0.00 44 1007.5
20260506001015 23 180 6.4 12.9 0.00 0.00 0.00 43 1007.3
20260506000515 23 203 4.8 16.1 0.00 0.00 0.00 43 1007.3
20260506000015 24 180 1.6 6.4 0.00 0.00 0.00 43 1007.4
20260505235515 24 203 3.2 9.7 0.00 0.00 0.00 43 1007.3
20260505235015 24 203 3.2 12.9 0.00 0.00 0.00 42 1007.3
20260505234515 25 180 4.8 12.9 0.00 0.00 0.00 42 1007.2
20260505234015 25 203 8.0 17.7 0.00 0.00 0.00 41 1007.2
20260505233515 25 203 6.4 22.5 0.00 0.00 0.00 41 1007.1
20260505233015 25 180 6.4 20.9 0.00 0.00 0.00 41 1007.0
20260505232515 25 203 9.7 20.9 0.00 0.00 0.00 41 1006.9
20260505232015 25 203 9.7 22.5 0.00 0.00 0.00 41 1006.8
20260505231515 25 203 9.7 27.4 0.00 0.00 0.00 41 1006.8
20260505231015 25 203 9.7 24.1 0.00 0.00 0.00 40 1006.6
20260505230515 25 203 8.0 20.9 0.00 0.00 0.00 40 1006.7
20260505230015 25 180 8.0 22.5 0.00 0.00 0.00 40 1006.6
20260505225515 25 203 9.7 30.6 0.00 0.00 0.00 40 1006.6
20260505225015 26 180 11.3 25.7 0.00 0.00 0.00 39 1006.5
20260505224515 26 203 12.9 25.7 0.00 0.00 0.00 39 1006.4
20260505224015 26 203 11.3 29.0 0.00 0.00 0.00 39 1006.3
20260505223515 26 203 8.0 22.5 0.00 0.00 0.00 38 1006.3
20260505223015 26 203 9.7 27.4 0.00 0.00 0.00 38 1006.2
20260505222517 26 203 6.4 19.3 0.00 0.00 0.00 39 1006.2
20260505222017 26 203 11.3 38.6 0.00 0.00 0.00 38 1006.2
20260505221517 26 203 12.9 30.6 0.00 0.00 0.00 38 1006.1
20260505221017 26 203 11.3 25.7 0.00 0.00 0.00 36 1006.1
20260505220517 27 203 11.3 29.0 0.00 0.00 0.00 36 1006.1
20260505220017 27 225 8.0 16.1 0.00 0.00 0.00 35 1006.0
20260505215517 27 203 12.9 29.0 0.00 0.00 0.00 35 1005.9
20260505215017 27 203 11.3 30.6 0.00 0.00 0.00 35 1005.8
20260505214517 27 203 11.3 27.4 0.00 0.00 0.00 35 1005.7
20260505214017 27 203 11.3 32.2 0.00 0.00 0.00 36 1005.7
20260505213517 27 225 11.3 29.0 0.00 0.00 0.00 35 1005.8
20260505213017 28 203 11.3 27.4 0.00 0.00 0.00 34 1005.8
20260505212517 28 203 12.9 30.6 0.00 0.00 0.00 34 1005.8
20260505212018 27 158 11.3 27.4 0.00 0.00 0.00 36 1005.7
20260505211517 28 203 11.3 25.7 0.00 0.00 0.00 34 1005.9
20260505211017 28 203 9.7 22.5 0.00 0.00 0.00 34 1005.8
20260505210517 28 225 9.7 38.6 0.00 0.00 0.00 35 1005.7
20260505210017 28 203 8.0 29.0 0.00 0.00 0.00 34 1005.6
20260505205517 28 203 16.1 41.8 0.00 0.00 0.00 33 1005.6
20260505205017 29 203 12.9 30.6 0.00 0.00 0.00 34 1005.3
20260505204517 29 225 9.7 29.0 0.00 0.00 0.00 34 1005.4
20260505204017 29 203 11.3 25.7 0.00 0.00 0.00 34 1005.5
20260505203517 29 203 11.3 24.1 0.00 0.00 0.00 35 1005.5
20260505203016 29 180 11.3 29.0 0.00 0.00 0.00 35 1005.6
20260505202518 29 158 9.7 32.2 0.00 0.00 0.00 35 1005.5
20260505202017 28 203 11.3 27.4 0.00 0.00 0.00 36 1005.6
20260505201516 28 180 9.7 25.7 0.00 0.00 0.00 36 1005.6
20260505201016 28 225 8.0 22.5 0.00 0.00 0.00 36 1005.8
20260505200516 28 203 11.3 24.1 0.00 0.00 0.00 37 1006.1
20260505200016 28 225 11.3 24.1 0.00 0.00 0.00 37 1006.1
20260505195517 28 203 9.7 19.3 0.00 0.00 0.00 35 1006.2
20260505195016 28 203 11.3 29.0 0.00 0.00 0.00 36 1006.1
20260505194516 28 225 9.7 20.9 0.00 0.00 0.00 36 1006.1
20260505194016 28 203 12.9 22.5 0.00 0.00 0.00 36 1006.2
20260505193517 29 203 11.3 32.2 0.00 0.00 0.00 38 1006.3
20260505193016 28 225 9.7 24.1 0.00 0.00 0.00 38 1006.3
20260505192516 28 225 11.3 35.4 0.00 0.00 0.00 36 1006.3
20260505192016 28 203 12.9 24.1 0.00 0.00 0.00 37 1006.5
20260505191516 28 203 11.3 29.0 0.00 0.00 0.00 36 1006.4
20260505191016 29 203 14.5 27.4 0.00 0.00 0.00 37 1006.6
20260505190516 29 225 12.9 24.1 0.00 0.00 0.00 37 1006.7
20260505190016 29 180 9.7 27.4 0.00 0.00 0.00 40 1006.7
20260505185516 29 203 12.9 33.8 0.00 0.00 0.00 38 1006.8
20260505185016 29 203 9.7 24.1 0.00 0.00 0.00 39 1006.9
20260505184516 29 203 9.7 25.7 0.00 0.00 0.00 38 1006.9
20260505184016 29 225 11.3 22.5 0.00 0.00 0.00 39 1007.0
20260505183516 28 225 11.3 22.5 0.00 0.00 0.00 38 1007.2
20260505183016 28 225 11.3 32.2 0.00 0.00 0.00 39 1007.1
20260505182516 28 203 8.0 20.9 0.00 0.00 0.00 41 1007.3
20260505182016 28 203 16.1 35.4 0.00 0.00 0.00 38 1007.4
20260505181516 28 225 14.5 27.4 0.00 0.00 0.00 38 1007.5
20260505181016 28 225 12.9 27.4 0.00 0.00 0.00 40 1007.6
20260505180516 28 203 16.1 45.1 0.00 0.00 0.00 40 1007.5
20260505180016 28 203 14.5 37.0 0.00 0.00 0.00 40 1007.4
20260505175516 28 225 16.1 33.8 0.00 0.00 0.00 40 1007.6
20260505175016 28 203 12.9 43.5 0.00 0.00 0.00 41 1007.5
20260505174516 28 203 14.5 29.0 0.00 0.00 0.00 45 1007.6
20260505174016 28 225 12.9 24.1 0.00 0.00 0.00 44 1007.7
20260505173517 28 180 9.7 27.4 0.00 0.00 0.00 43 1007.9
20260505173016 28 248 11.3 22.5 0.00 0.00 0.00 45 1007.7
20260505172516 27 225 11.3 33.8 0.00 0.00 0.00 46 1007.8
20260505172016 27 225 12.9 24.1 0.00 0.00 0.00 44 1007.8
20260505171516 28 203 11.3 29.0 0.00 0.00 0.00 42 1007.8
20260505171016 27 203 8.0 19.3 0.00 0.00 0.00 48 1007.9
20260505170516 27 203 9.7 19.3 0.00 0.00 0.00 45 1007.9
20260505170016 27 225 11.3 22.5 0.00 0.00 0.00 47 1008.0
20260505165516 27 225 11.3 24.1 0.00 0.00 0.00 46 1008.0
20260505165017 27 225 11.3 25.7 0.00 0.00 0.00 46 1008.2
20260505164516 27 203 12.9 25.7 0.00 0.00 0.00 46 1008.3
20260505164016 27 180 9.7 25.7 0.00 0.00 0.00 46 1008.4
20260505163516 27 225 11.3 24.1 0.00 0.00 0.00 47 1008.5
20260505163016 26 203 9.7 19.3 0.00 0.00 0.00 48 1008.5
20260505162516 26 225 11.3 25.7 0.00 0.00 0.00 47 1008.6
20260505162016 27 203 12.9 27.4 0.00 0.00 0.00 46 1008.6
20260505161516 26 180 8.0 22.5 0.00 0.00 0.00 49 1008.7
20260505161016 26 203 9.7 17.7 0.00 0.00 0.00 48 1008.9
20260505160516 26 203 9.7 29.0 0.00 0.00 0.00 52 1009.0
20260505153016 26 225 8.0 20.9 0.00 0.00 0.00 50 1009.3
20260505152516 26 203 11.3 27.4 0.00 0.00 0.00 49 1009.4
20260505152016 26 248 11.3 24.1 0.00 0.00 0.00 52 1009.3
20260505151516 26 225 8.0 24.1 0.00 0.00 0.00 51 1009.4
20260505151016 25 203 9.7 25.7 0.00 0.00 0.00 52 1009.3
20260505150516 26 180 6.4 25.7 0.00 0.00 0.00 53 1009.4
20260505140516 23 225 8.0 17.7 0.00 0.00 0.00 60 1009.7
20260505125016 20 248 4.8 11.3 0.00 0.00 0.00 68 1009.8
20260505124516 19 248 1.6 6.4 0.00 0.00 0.00 71 1009.9
20260505124016 18 225 3.2 6.4 0.00 0.00 0.00 73 1009.8
20260505123516 18 158 1.6 8.0 0.00 0.00 0.00 72 1009.7
20260505123016 17 203 1.6 8.0 0.00 0.00 0.00 74 1009.4
20260505122516 17 180 1.6 4.8 0.00 0.00 0.00 75 1009.6
20260505122016 17 203 3.2 8.0 0.00 0.00 0.00 77 1009.6
20260505121516 16 203 1.6 6.4 0.00 0.00 0.00 80 1009.6
20260505121016 15 180 1.6 9.7 0.00 0.00 0.00 81 1009.6
20260505120516 15 0.0 4.8 0.00 0.00 0.00 83 1009.6
20260505120016 14 203 3.2 8.0 0.00 0.00 0.00 85 1009.5
20260505115516 13 0.0 3.2 0.00 0.00 0.00 87 1009.5
20260505115015 13 225 3.2 9.7 0.00 0.00 0.00 87 1009.7
20260505114515 12 180 3.2 8.0 0.00 0.00 0.00 89 1009.8
20260505114015 12 0.0 1.6 0.00 0.00 0.00 89 1009.7
20260505113516 12 0.0 0.0 0.00 0.00 0.00 87 1009.8
20260505113016 12 0.0 1.6 0.00 0.00 0.00 87 1009.7
20260505112515 12 225 1.6 4.8 0.00 0.00 0.00 87 1009.8
20260505112015 12 225 3.2 4.8 0.00 0.00 0.00 86 1009.7
20260505111515 12 180 1.6 6.4 0.00 0.00 0.00 86 1009.6
20260505111016 12 0.0 3.2 0.00 0.00 0.00 86 1009.5
20260505110515 12 180 1.6 6.4 0.00 0.00 0.00 86 1009.6
20260505102015 8 0.0 6.4 0.00 0.00 0.00 92 1009.9
20260505101515 8 0.0 4.8 0.00 0.00 0.00 92 1009.8
20260505101015 7 0.0 0.0 0.00 0.00 0.00 92 1009.6
20260505100515 7 0.0 1.6 0.00 0.00 0.00 92 1009.6
20260505100015 7 0.0 0.0 0.00 0.00 0.00 91 1009.5
20260505095515 7 0.0 0.0 0.00 0.00 0.00 91 1009.5
20260505095015 7 0.0 0.0 0.00 0.00 0.00 91 1009.5
20260505094515 7 0.0 0.0 0.00 0.00 0.00 91 1009.3
20260505094015 7 0.0 0.0 0.00 0.00 0.00 91 1009.2
20260505093515 7 0.0 0.0 0.00 0.00 0.00 90 1009.2
20260505093015 7 0.0 0.0 0.00 0.00 0.00 90 1009.3
20260505092515 7 0.0 0.0 0.00 0.00 0.00 90 1009.2
20260505092015 7 0.0 0.0 0.00 0.00 0.00 90 1008.9
20260505091515 7 0.0 0.0 0.00 0.00 0.00 89 1009.0
20260505091015 7 0.0 0.0 0.00 0.00 0.00 89 1008.9
20260505090515 7 0.0 0.0 0.00 0.00 0.00 89 1008.9
20260505090015 7 0.0 0.0 0.00 0.00 0.00 89 1008.9
20260505085515 7 0.0 0.0 0.00 0.00 0.00 89 1008.9
20260505085015 7 0.0 0.0 0.00 0.00 0.00 89 1008.9
20260505084515 8 0.0 0.0 0.00 0.00 0.00 89 1008.9
20260505084015 8 0.0 0.0 0.00 0.00 0.00 89 1009.0
20260505083515 8 0.0 0.0 0.00 0.00 0.00 89 1009.1
20260505083015 8 0.0 0.0 0.00 0.00 0.00 89 1009.1
20260505082515 8 0.0 0.0 0.00 0.00 0.00 88 1009.0
20260505082015 8 0.0 0.0 0.00 0.00 0.00 88 1009.1
20260505081515 8 0.0 0.0 0.00 0.00 0.00 88 1009.0
20260505081015 8 0.0 0.0 0.00 0.00 0.00 87 1009.1
20260505080515 8 0.0 0.0 0.00 0.00 0.00 87 1009.1
20260505080015 8 0.0 0.0 0.00 0.00 0.00 87 1008.9
20260505075515 8 0.0 0.0 0.00 0.00 0.00 87 1009.0
20260505075015 8 0.0 0.0 0.00 0.00 0.00 87 1009.1
20260505074515 8 0.0 0.0 0.00 0.00 0.00 87 1009.1
20260505074015 8 0.0 0.0 0.00 0.00 0.00 87 1009.1
20260505073515 8 0.0 0.0 0.00 0.00 0.00 87 1009.1
20260505073015 8 0.0 0.0 0.00 0.00 0.00 86 1009.2
20260505072515 8 0.0 0.0 0.00 0.00 0.00 86 1009.1
20260505072015 9 0.0 0.0 0.00 0.00 0.00 85 1009.2
20260505071515 9 0.0 0.0 0.00 0.00 0.00 85 1009.2
20260505071015 9 0.0 0.0 0.00 0.00 0.00 85 1009.1
20260505070515 9 0.0 0.0 0.00 0.00 0.00 85 1009.1
20260505070015 9 0.0 0.0 0.00 0.00 0.00 85 1009.1
20260505065515 9 0.0 0.0 0.00 0.00 0.00 85 1009.1
20260505065015 9 0.0 0.0 0.00 0.00 0.00 85 1009.1
20260505064515 9 0.0 0.0 0.00 0.00 0.00 84 1009.0
20260505064015 10 0.0 0.0 0.00 0.00 0.00 84 1009.0
20260505063515 10 0.0 0.0 0.00 0.00 0.00 85 1009.0
20260505063015 10 0.0 0.0 0.00 0.00 0.00 85 1009.0
20260505062515 10 0.0 0.0 0.00 0.00 0.00 85 1009.0
20260505062015 10 0.0 0.0 0.00 0.00 0.00 84 1009.1
20260505061515 10 0.0 0.0 0.00 0.00 0.00 83 1009.1
20260505061015 10 0.0 0.0 0.00 0.00 0.00 84 1009.1
20260505060516 10 0.0 0.0 0.00 0.00 0.00 83 1009.1
20260505060015 10 0.0 0.0 0.00 0.00 0.00 83 1009.2
20260505055515 10 0.0 0.0 0.00 0.00 0.00 83 1009.2
20260505055015 10 0.0 0.0 0.00 0.00 0.00 82 1009.3
20260505054515 10 0.0 0.0 0.00 0.00 0.00 83 1009.3
20260505054015 10 0.0 0.0 0.00 0.00 0.00 83 1009.3
20260505053515 10 0.0 0.0 0.00 0.00 0.00 83 1009.3
20260505053015 11 0.0 0.0 0.00 0.00 0.00 82 1009.4
20260505052515 11 0.0 0.0 0.00 0.00 0.00 81 1009.4
20260505052015 11 0.0 0.0 0.00 0.00 0.00 80 1009.4
20260505051515 11 0.0 0.0 0.00 0.00 0.00 80 1009.5
20260505051017 11 0.0 0.0 0.00 0.00 0.00 82 1009.4
20260505050517 11 0.0 1.6 0.00 0.00 0.00 79 1009.4
20260505041517 12 0.0 0.0 0.00 0.00 0.00 78 1009.4
20260505041017 12 0.0 0.0 0.00 0.00 0.00 75 1009.4